Time,TemperatureF,DewpointF,PressureIn,WindDirection,WindDirectionDegrees,WindSpeedMPH,WindSpeedGustMPH,Humidity,HourlyPrecipIn,Conditions,Clouds,dailyrainin,SoftwareType,DateUTC
2013-06-29 00:01:00,76.0,73.0,29.91,South,191,0.0,0.0,91,0.10,,,2.30,,2013-06-29 04:01:00,
2013-06-29 00:11:00,76.0,73.0,29.91,South,191,0.0,0.0,91,0.10,,,2.30,,2013-06-29 04:11:00,
2013-06-29 00:24:00,76.0,74.0,29.91,SSW,208,2.0,4.0,92,0.10,,,2.30,,2013-06-29 04:24:00,
2013-06-29 00:32:00,76.0,74.0,29.91,SW,215,2.0,4.0,92,0.10,,,2.30,,2013-06-29 04:32:00,
2013-06-29 00:41:00,76.0,74.0,29.89,SW,235,0.0,0.0,93,0.80,,,2.50,,2013-06-29 04:41:00,
2013-06-29 00:51:00,76.0,74.0,29.89,SW,235,0.0,0.0,93,0.80,,,2.50,,2013-06-29 04:51:00,
2013-06-29 01:01:00,76.0,74.0,29.89,SW,235,0.0,0.0,93,0.80,,,2.50,,2013-06-29 05:01:00,
2013-06-29 01:11:00,76.0,74.0,29.89,SW,235,0.0,0.0,93,0.80,,,2.50,,2013-06-29 05:11:00,
2013-06-29 01:21:00,76.0,74.0,29.89,SW,235,0.0,0.0,93,0.80,,,2.50,,2013-06-29 05:21:00,
2013-06-29 01:31:00,76.0,74.0,29.89,North,10,1.0,2.0,93,0.80,,,2.50,,2013-06-29 05:31:00,
2013-06-29 01:41:00,76.0,74.0,29.87,North,357,0.0,0.0,93,0.00,,,2.50,,2013-06-29 05:41:00,
2013-06-29 01:51:00,76.0,74.0,29.87,North,357,0.0,0.0,93,0.00,,,2.50,,2013-06-29 05:51:00,
2013-06-29 02:01:00,76.0,74.0,29.87,North,357,0.0,0.0,93,0.00,,,2.50,,2013-06-29 06:01:00,
2013-06-29 02:12:00,76.0,74.0,29.86,North,357,0.0,0.0,93,0.00,,,2.50,,2013-06-29 06:12:00,
2013-06-29 03:02:00,76.0,74.0,29.85,South,174,0.0,0.0,94,0.00,,,2.50,,2013-06-29 07:02:00,
2013-06-29 03:33:00,76.0,74.0,29.85,SW,229,0.0,0.0,93,0.00,,,2.50,,2013-06-29 07:33:00,
2013-06-29 03:43:00,77.0,75.0,29.85,SW,229,0.0,0.0,93,0.00,,,2.50,,2013-06-29 07:43:00,
2013-06-29 03:53:00,76.0,74.0,29.85,SW,229,0.0,0.0,93,0.00,,,2.50,,2013-06-29 07:53:00,
2013-06-29 04:01:00,76.0,74.0,29.85,SW,229,0.0,0.0,93,0.00,,,2.50,,2013-06-29 08:01:00,
2013-06-29 04:12:00,76.0,74.0,29.85,SW,229,0.0,0.0,93,0.00,,,2.50,,2013-06-29 08:12:00,
2013-06-29 04:33:00,76.0,74.0,29.85,SW,229,0.0,0.0,94,0.00,,,2.50,,2013-06-29 08:33:00,
2013-06-29 04:43:00,77.0,75.0,29.85,NNE,23,3.0,3.0,93,0.00,,,2.50,,2013-06-29 08:43:00,
2013-06-29 04:52:00,77.0,75.0,29.86,NE,37,3.0,3.0,94,0.00,,,2.50,,2013-06-29 08:52:00,
2013-06-29 05:02:00,76.0,74.0,29.87,NNE,21,0.0,0.0,94,0.00,,,2.50,,2013-06-29 09:02:00,
2013-06-29 05:42:00,76.0,74.0,29.87,NNE,21,0.0,0.0,92,0.00,,,2.50,,2013-06-29 09:42:00,
2013-06-29 06:01:00,76.0,74.0,29.88,SW,217,0.0,2.0,92,0.00,,,2.50,,2013-06-29 10:01:00,
2013-06-29 06:11:00,76.0,73.0,29.88,South,169,2.0,3.0,91,0.00,,,2.50,,2013-06-29 10:11:00,
2013-06-29 06:33:00,76.0,73.0,29.87,SSW,194,0.0,0.0,89,0.00,,,2.50,,2013-06-29 10:33:00,
2013-06-29 06:43:00,76.0,72.0,29.87,WNW,284,1.0,2.0,88,0.00,,,2.50,,2013-06-29 10:43:00,
2013-06-29 06:52:00,76.0,73.0,29.87,SW,224,0.0,0.0,89,0.00,,,2.50,,2013-06-29 10:52:00,
2013-06-29 07:02:00,75.0,72.0,29.87,WSW,245,0.0,0.0,89,0.00,,,2.50,,2013-06-29 11:02:00,
2013-06-29 07:11:00,75.0,72.0,29.87,WSW,245,0.0,0.0,90,0.00,,,2.50,,2013-06-29 11:11:00,
2013-06-29 07:23:00,75.0,72.0,29.86,WSW,245,0.0,0.0,90,0.00,,,2.50,,2013-06-29 11:23:00,
2013-06-29 07:33:00,75.0,72.0,29.86,WSW,245,0.0,0.0,91,0.00,,,2.50,,2013-06-29 11:33:00,
2013-06-29 07:43:00,75.0,73.0,29.87,East,93,2.0,2.0,92,0.00,,,2.50,,2013-06-29 11:43:00,
2013-06-29 07:53:00,75.0,73.0,29.87,ENE,58,0.0,0.0,92,0.00,,,2.50,,2013-06-29 11:53:00,
2013-06-29 08:02:00,75.0,73.0,29.87,ESE,114,0.0,0.0,92,0.00,,,2.50,,2013-06-29 12:02:00,
2013-06-29 08:43:00,80.0,74.0,29.87,ESE,121,0.0,0.0,83,0.00,,,2.50,,2013-06-29 12:43:00,
2013-06-29 08:53:00,81.0,76.0,29.87,ESE,121,0.0,0.0,84,0.00,,,2.50,,2013-06-29 12:53:00,
2013-06-29 09:43:00,83.0,75.0,29.88,SSW,200,2.0,2.0,77,0.00,,,2.50,,2013-06-29 13:43:00,
2013-06-29 10:34:00,85.0,74.0,29.86,SSE,152,4.0,6.0,70,0.00,,,2.50,,2013-06-29 14:34:00,
2013-06-29 10:44:00,86.0,74.0,29.86,SSW,203,3.0,4.0,68,0.00,,,2.50,,2013-06-29 14:44:00,
2013-06-29 10:53:00,86.0,74.0,29.86,SE,143,5.0,5.0,68,0.00,,,2.50,,2013-06-29 14:53:00,
2013-06-29 11:11:00,86.0,74.0,29.86,SSW,205,2.0,2.0,68,0.00,,,2.50,,2013-06-29 15:11:00,
2013-06-29 11:22:00,86.0,74.0,29.86,SE,128,4.0,4.0,67,0.00,,,2.50,,2013-06-29 15:22:00,
2013-06-29 11:33:00,86.0,73.0,29.87,SSW,198,7.0,7.0,66,0.00,,,2.50,,2013-06-29 15:33:00,
2013-06-29 11:42:00,86.0,73.0,29.87,SW,236,5.0,5.0,65,0.00,,,2.50,,2013-06-29 15:42:00,
2013-06-29 11:53:00,86.0,73.0,29.87,South,191,4.0,6.0,66,0.00,,,2.50,,2013-06-29 15:53:00,
2013-06-29 12:02:00,87.0,72.0,29.87,SW,232,5.0,5.0,62,0.00,,,2.50,,2013-06-29 16:02:00,
2013-06-29 12:12:00,88.0,73.0,29.87,SSW,200,6.0,6.0,62,0.00,,,2.50,,2013-06-29 16:12:00,
2013-06-29 12:22:00,87.0,75.0,29.86,ESE,110,6.0,6.0,67,0.00,,,2.50,,2013-06-29 16:22:00,
2013-06-29 12:33:00,88.0,75.0,29.86,South,186,5.0,5.0,66,0.00,,,2.50,,2013-06-29 16:33:00,
2013-06-29 12:43:00,88.0,76.0,29.85,South,184,3.0,3.0,67,0.00,,,2.50,,2013-06-29 16:43:00,
2013-06-29 13:01:00,86.0,75.0,29.85,SE,136,5.0,5.0,69,0.00,,,2.50,,2013-06-29 17:01:00,
2013-06-29 13:12:00,87.0,75.0,29.85,SE,138,6.0,6.0,67,0.00,,,2.50,,2013-06-29 17:12:00,
2013-06-29 13:34:00,87.0,75.0,29.85,East,98,4.0,8.0,68,0.00,,,2.50,,2013-06-29 17:34:00,
2013-06-29 13:42:00,88.0,74.0,29.85,South,186,5.0,5.0,64,0.00,,,2.50,,2013-06-29 17:42:00,
2013-06-29 14:01:00,88.0,73.0,29.85,SW,217,5.0,6.0,62,0.00,,,2.50,,2013-06-29 18:01:00,
2013-06-29 14:12:00,89.0,75.0,29.84,SSE,148,6.0,7.0,63,0.00,,,2.50,,2013-06-29 18:12:00,
2013-06-29 14:34:00,89.0,74.0,29.84,SE,141,11.0,11.0,61,0.00,,,2.50,,2013-06-29 18:34:00,
2013-06-29 14:43:00,89.0,76.0,29.84,SE,139,5.0,6.0,65,0.00,,,2.50,,2013-06-29 18:43:00,
2013-06-29 14:52:00,88.0,73.0,29.84,South,173,6.0,6.0,62,0.00,,,2.50,,2013-06-29 18:52:00,
2013-06-29 15:01:00,87.0,74.0,29.83,SE,128,5.0,5.0,66,0.00,,,2.50,,2013-06-29 19:01:00,
2013-06-29 15:12:00,86.0,73.0,29.83,SSW,208,5.0,5.0,65,0.00,,,2.50,,2013-06-29 19:12:00,
2013-06-29 15:22:00,86.0,74.0,29.82,SW,232,6.0,6.0,67,0.00,,,2.50,,2013-06-29 19:22:00,
2013-06-29 15:34:00,88.0,73.0,29.83,SSE,156,5.0,7.0,61,0.00,,,2.50,,2013-06-29 19:34:00,
2013-06-29 15:43:00,89.0,74.0,29.83,South,190,6.0,7.0,61,0.00,,,2.50,,2013-06-29 19:43:00,
2013-06-29 15:54:00,88.0,74.0,29.83,SSW,201,8.0,8.0,63,0.00,,,2.50,,2013-06-29 19:54:00,
2013-06-29 16:02:00,88.0,73.0,29.81,South,180,7.0,11.0,61,0.00,,,2.50,,2013-06-29 20:02:00,
2013-06-29 16:12:00,89.0,72.0,29.81,SSE,163,7.0,7.0,58,0.00,,,2.50,,2013-06-29 20:12:00,
2013-06-29 16:23:00,87.0,71.0,29.84,South,190,9.0,9.0,60,0.00,,,2.50,,2013-06-29 20:23:00,
2013-06-29 16:33:00,81.0,70.0,29.84,NW,316,11.0,11.0,69,0.00,,,2.50,,2013-06-29 20:33:00,
2013-06-29 16:43:00,78.0,69.0,29.84,WNW,293,6.0,7.0,73,0.00,,,2.50,,2013-06-29 20:43:00,
2013-06-29 16:52:00,78.0,74.0,29.84,WNW,283,6.0,7.0,87,0.00,,,2.50,,2013-06-29 20:52:00,
2013-06-29 17:11:00,77.0,74.0,29.84,North,10,1.0,0.0,90,0.00,,,2.50,,2013-06-29 21:11:00,
2013-06-29 17:22:00,78.0,74.0,29.84,NW,305,0.0,0.0,89,1.10,,,2.50,,2013-06-29 21:22:00,
2013-06-29 17:32:00,78.0,74.0,29.84,NW,305,0.0,0.0,89,1.10,,,2.50,,2013-06-29 21:32:00,
2013-06-29 17:42:00,78.0,74.0,29.85,SSW,197,1.0,0.0,89,1.10,,,2.50,,2013-06-29 21:42:00,
2013-06-29 17:52:00,78.0,74.0,29.84,WSW,242,0.0,0.0,88,1.10,,,2.50,,2013-06-29 21:52:00,
2013-06-29 18:01:00,79.0,75.0,29.85,WSW,253,0.0,1.0,88,1.10,,,2.50,,2013-06-29 22:01:00,
2013-06-29 18:11:00,79.0,75.0,29.85,SSW,212,1.0,1.0,89,1.10,,,2.50,,2013-06-29 22:11:00,
2013-06-29 18:21:00,79.0,75.0,29.85,West,266,1.0,0.0,89,0.00,,,2.50,,2013-06-29 22:21:00,
2013-06-29 18:33:00,79.0,75.0,29.84,West,274,0.0,0.0,88,0.00,,,2.50,,2013-06-29 22:33:00,
2013-06-29 18:43:00,79.0,75.0,29.84,NW,319,0.0,3.0,89,0.00,,,2.50,,2013-06-29 22:43:00,
2013-06-29 18:53:00,79.0,75.0,29.84,NNW,332,0.0,0.0,89,0.00,,,2.50,,2013-06-29 22:53:00,
2013-06-29 19:02:00,79.0,75.0,29.84,SW,224,0.0,0.0,89,0.00,,,2.50,,2013-06-29 23:02:00,
2013-06-29 19:12:00,79.0,76.0,29.84,SW,224,0.0,0.0,90,0.00,,,2.50,,2013-06-29 23:12:00,
2013-06-29 19:23:00,79.0,75.0,29.84,SW,224,0.0,0.0,89,0.40,,,2.50,,2013-06-29 23:23:00,
2013-06-29 19:34:00,79.0,76.0,29.84,SW,224,0.0,0.0,90,0.40,,,2.50,,2013-06-29 23:34:00,
2013-06-29 19:43:00,79.0,76.0,29.84,SW,224,0.0,0.0,90,0.40,,,2.50,,2013-06-29 23:43:00,
2013-06-29 19:52:00,79.0,75.0,29.85,SW,224,0.0,0.0,89,0.40,,,2.50,,2013-06-29 23:52:00,
2013-06-29 20:02:00,79.0,76.0,29.85,SW,224,0.0,0.0,90,0.40,,,2.50,,2013-06-30 00:02:00,
2013-06-29 20:12:00,80.0,77.0,29.85,SW,224,0.0,0.0,90,0.40,,,2.50,,2013-06-30 00:12:00,
2013-06-29 20:22:00,80.0,77.0,29.85,SW,224,0.0,0.0,91,0.00,,,2.50,,2013-06-30 00:22:00,
2013-06-29 20:33:00,79.0,76.0,29.85,SW,224,0.0,0.0,91,0.00,,,2.50,,2013-06-30 00:33:00,
2013-06-29 20:43:00,79.0,76.0,29.86,South,187,0.0,0.0,91,0.00,,,2.50,,2013-06-30 00:43:00,
2013-06-29 20:52:00,79.0,76.0,29.85,South,174,3.0,3.0,90,0.00,,,2.50,,2013-06-30 00:52:00,
2013-06-29 21:01:00,79.0,76.0,29.85,SSE,152,0.0,0.0,90,0.00,,,2.50,,2013-06-30 01:01:00,
2013-06-29 21:11:00,79.0,75.0,29.86,SW,215,2.0,2.0,87,0.00,,,2.50,,2013-06-30 01:11:00,
2013-06-29 21:22:00,79.0,75.0,29.86,SSW,208,2.0,2.0,87,0.00,,,2.50,,2013-06-30 01:22:00,
2013-06-29 21:33:00,79.0,75.0,29.87,SSW,197,0.0,0.0,87,0.00,,,2.50,,2013-06-30 01:33:00,
2013-06-29 21:44:00,79.0,75.0,29.87,SSW,197,0.0,0.0,88,0.00,,,2.50,,2013-06-30 01:44:00,
2013-06-29 21:53:00,79.0,75.0,29.88,SW,215,0.0,0.0,88,0.00,,,2.50,,2013-06-30 01:53:00,
2013-06-29 22:02:00,79.0,75.0,29.88,SW,215,0.0,0.0,88,0.00,,,2.50,,2013-06-30 02:02:00,
2013-06-29 22:11:00,79.0,75.0,29.88,South,170,2.0,0.0,88,0.00,,,2.50,,2013-06-30 02:11:00,
2013-06-29 22:23:00,79.0,75.0,29.88,South,186,2.0,2.0,88,0.00,,,2.50,,2013-06-30 02:23:00,
2013-06-29 22:34:00,79.0,75.0,29.88,South,191,2.0,2.0,88,0.00,,,2.50,,2013-06-30 02:34:00,
2013-06-29 22:43:00,79.0,75.0,29.88,South,177,0.0,0.0,87,0.00,,,2.50,,2013-06-30 02:43:00,
2013-06-29 22:53:00,79.0,75.0,29.88,South,177,0.0,0.0,88,0.00,,,2.50,,2013-06-30 02:53:00,
2013-06-29 23:01:00,79.0,75.0,29.88,South,177,0.0,0.0,88,0.00,,,2.50,,2013-06-30 03:01:00,
2013-06-29 23:12:00,79.0,75.0,29.88,South,177,0.0,0.0,88,0.00,,,2.50,,2013-06-30 03:12:00,
2013-06-29 23:23:00,79.0,75.0,29.87,SW,229,2.0,2.0,88,0.00,,,2.50,,2013-06-30 03:23:00,
2013-06-29 23:33:00,79.0,75.0,29.87,South,181,2.0,3.0,88,0.00,,,2.50,,2013-06-30 03:33:00,
2013-06-29 23:43:00,79.0,75.0,29.87,SSE,148,1.0,0.0,88,0.00,,,2.50,,2013-06-30 03:43:00,
2013-06-29 23:53:00,79.0,75.0,29.87,SSE,166,0.0,0.0,87,0.00,,,2.50,,2013-06-30 03:53:00,